| time (UTC) | temp C | wind direction | speed KPH | gust KPH | rain 1hr cm | rain 24hr cm | rain mn cm | humidity % | barometer mb |
| 20260504231543 | 30 | 0 | 3.2 | 11.3 | 0.00 | 0.00 | 0.00 | 40 | 1005.8 |
| 20260504230046 | 30 | 101 | 1.6 | 6.4 | 0.00 | 0.00 | 0.00 | 40 | 1006.0 |
| 20260504224545 | 30 | 0 | 0.0 | 4.8 | 0.00 | 0.00 | 0.00 | 39 | 1006.1 |
| 20260504223102 | 30 | 188 | 0.0 | 8.0 | 0.00 | 0.00 | 0.00 | 37 | 1006.2 |
| 20260504221548 | 30 | 155 | 0.0 | 6.4 | 0.00 | 0.00 | 0.00 | 37 | 1006.4 |
| 20260504220048 | 30 | 0 | 0.0 | 6.4 | 0.00 | 0.00 | 0.00 | 36 | 1006.5 |
| 20260504214546 | 30 | 0 | 0.0 | 6.4 | 0.00 | 0.00 | 0.00 | 37 | 1006.6 |
| 20260504213055 | 29 | 0 | 0.0 | 6.4 | 0.00 | 0.00 | 0.00 | 37 | 1006.7 |
| 20260504211613 | 29 | 0 | 0.0 | 9.7 | 0.00 | 0.00 | 0.00 | 36 | 1006.9 |
| 20260504210053 | 29 | 0 | 0.0 | 11.3 | 0.00 | 0.00 | 0.00 | 37 | 1006.9 |
| 20260504204546 | 28 | 0 | 0.0 | 4.8 | 0.00 | 0.00 | 0.00 | 37 | 1007.2 |
| 20260504203046 | 28 | 200 | 0.0 | 9.7 | 0.00 | 0.00 | 0.00 | 38 | 1007.3 |
| 20260504201549 | 27 | 195 | 3.2 | 14.5 | 0.00 | 0.00 | 0.00 | 40 | 1007.3 |
| 20260504200053 | 27 | 0 | 1.6 | 4.8 | 0.00 | 0.00 | 0.00 | 43 | 1007.3 |
| 20260504194551 | 27 | 0 | 0.0 | 9.7 | 0.00 | 0.00 | 0.00 | 45 | 1007.4 |
| 20260504193047 | 26 | 0 | 0.0 | 3.2 | 0.00 | 0.00 | 0.00 | 46 | 1007.6 |
| 20260504191606 | 26 | 0 | 0.0 | 9.7 | 0.00 | 0.00 | 0.00 | 46 | 1007.5 |
| 20260504190054 | 26 | 0 | 0.0 | 3.2 | 0.00 | 0.00 | 0.00 | 49 | 1007.7 |
| 20260504184552 | 25 | 187 | 1.6 | 6.4 | 0.00 | 0.00 | 0.00 | 51 | 1007.8 |
| 20260504183052 | 25 | 0 | 0.0 | 3.2 | 0.00 | 0.00 | 0.00 | 51 | 1007.9 |
| 20260504181558 | 25 | 138 | 1.6 | 6.4 | 0.00 | 0.00 | 0.00 | 52 | 1007.8 |
| 20260504180053 | 24 | 0 | 0.0 | 6.4 | 0.00 | 0.00 | 0.00 | 53 | 1007.9 |
| 20260504174545 | 23 | 0 | 0.0 | 8.0 | 0.00 | 0.00 | 0.00 | 55 | 1007.8 |
| 20260504173050 | 23 | 0 | 0.0 | 4.8 | 0.00 | 0.00 | 0.00 | 54 | 1007.7 |
| 20260504171546 | 23 | 0 | 0.0 | 0.0 | 0.00 | 0.00 | 0.00 | 54 | 1007.7 |
| 20260504081550 | 11 | 0 | 0.0 | 1.6 | 0.00 | 0.00 | 0.00 | 76 | 1006.7 |
| 20260504044549 | 18 | 0 | 0.0 | 4.8 | 0.00 | 0.00 | 0.00 | 56 | 1007.0 |
| 20260504043051 | 18 | 123 | 0.0 | 8.0 | 0.00 | 0.00 | 0.00 | 57 | 1007.0 |
| 20260504041548 | 17 | 0 | 0.0 | 0.0 | 0.00 | 0.00 | 0.00 | 62 | 1007.1 |
| 20260504040131 | 17 | 0 | 0.0 | 0.0 | 0.00 | 0.00 | 0.00 | 69 | 1007.0 |
| 20260504034548 | 17 | 0 | 0.0 | 0.0 | 0.00 | 0.00 | 0.00 | 69 | 1007.0 |
| 20260504033049 | 18 | 0 | 0.0 | 0.0 | 0.00 | 0.00 | 0.00 | 69 | 1007.0 |
| 20260504031556 | 20 | 0 | 0.0 | 0.0 | 0.00 | 0.00 | 0.00 | 65 | 1007.0 |
| 20260504030049 | 21 | 0 | 0.0 | 0.0 | 0.00 | 0.00 | 0.00 | 60 | 1007.0 |
| 20260504024551 | 23 | 0 | 0.0 | 0.0 | 0.00 | 0.00 | 0.00 | 52 | 1007.0 |
| 20260504023046 | 24 | 0 | 0.0 | 0.0 | 0.00 | 0.00 | 0.00 | 45 | 1007.0 |
| 20260504021542 | 25 | 0 | 0.0 | 0.0 | 0.00 | 0.00 | 0.00 | 43 | 1007.0 |
| 20260504020106 | 26 | 0 | 0.0 | 0.0 | 0.00 | 0.00 | 0.00 | 39 | 1007.1 |
| 20260504014554 | 27 | 0 | 0.0 | 0.0 | 0.00 | 0.00 | 0.00 | 38 | 1007.1 |
| 20260504013048 | 27 | 0 | 0.0 | 0.0 | 0.00 | 0.00 | 0.00 | 37 | 1007.2 |
| 20260504011545 | 28 | 0 | 0.0 | 3.2 | 0.00 | 0.00 | 0.00 | 37 | 1007.3 |
| 20260504010050 | 29 | 0 | 0.0 | 4.8 | 0.00 | 0.00 | 0.00 | 35 | 1007.4 |
| 20260504004542 | 30 | 0 | 0.0 | 3.2 | 0.00 | 0.00 | 0.00 | 34 | 1007.7 |
| 20260504003051 | 29 | 0 | 0.0 | 4.8 | 0.00 | 0.00 | 0.00 | 35 | 1008.1 |
| 20260504001553 | 30 | 0 | 0.0 | 1.6 | 0.00 | 0.00 | 0.00 | 36 | 1008.4 |
| 20260504000051 | 30 | 0 | 0.0 | 1.6 | 0.00 | 0.00 | 0.00 | 35 | 1008.4 |
| 20260503234620 | 30 | 0 | 0.0 | 3.2 | 0.00 | 0.00 | 0.00 | 36 | 1008.5 |
| 20260503233050 | 30 | 0 | 0.0 | 1.6 | 0.00 | 0.00 | 0.00 | 36 | 1008.6 |